This is the latest recevied weather packets stored in our database for station/object KA7EII-13. If no packets are shown the sender has not sent any weather packets the latest 10 day(s).
| Time | Temp. | Humidity | Pressure | Rain* | Wind** | Luminosity | Snow |
|---|---|---|---|---|---|---|---|
| 1777866146 | 13.89° C | 43% | 1099.2 hPa | 0 mm | - | 0 W/m² | - |
| 1777865843 | 13.89° C | 43% | 1099.2 hPa | 0 mm | - | 0 W/m² | - |
| 1777865541 | 14.44° C | 42% | 1099.2 hPa | 0 mm | - | 0 W/m² | - |
| 1777865237 | 15° C | 41% | 1099.1 hPa | 0 mm | - | 0 W/m² | - |
| 1777864934 | 15° C | 41% | 1099.1 hPa | 0 mm | - | 0 W/m² | - |
| 1777864631 | 15° C | 41% | 1099.1 hPa | 0 mm | - | 0 W/m² | - |
| 1777864328 | 15.56° C | 41% | 1099.1 hPa | 0 mm | - | 0 W/m² | - |
| 1777864023 | 15.56° C | 40% | 1099 hPa | 0 mm | - | 0 W/m² | - |
| 1777863721 | 16.11° C | 39% | 1099.2 hPa | 0 mm | - | 0 W/m² | - |
| 1777863418 | 16.67° C | 37% | 1099 hPa | 0 mm | - | 0 W/m² | - |
| 1777863114 | 16.11° C | 37% | 1099.1 hPa | 0 mm | - | 0 W/m² | - |
| 1777862811 | 15.56° C | 38% | 1099 hPa | 0 mm | - | 0 W/m² | - |
| 1777862508 | 16.11° C | 38% | 1098.8 hPa | 0 mm | - | 0 W/m² | - |
| 1777862205 | 16.67° C | 40% | 1099 hPa | 0 mm | - | 0 W/m² | - |
| 1777861901 | 17.22° C | 36% | 1099 hPa | 0 mm | - | 1 W/m² | - |
| 1777861597 | 17.78° C | 35% | 1099 hPa | 0 mm | - | 3 W/m² | - |
| 1777861293 | 17.78° C | 35% | 1098.9 hPa | 0 mm | - | 5 W/m² | - |
| 1777860991 | 18.33° C | 34% | 1098.6 hPa | 0 mm | - | 8 W/m² | - |
| 1777860687 | 18.89° C | 32% | 1098.9 hPa | 0 mm | - | 10 W/m² | - |
| 1777860385 | 18.89° C | 32% | 1098.8 hPa | 0 mm | - | 12 W/m² | - |
| 1777860081 | 19.44° C | 29% | 1098.9 hPa | 0 mm | - | 14 W/m² | - |
| 1777859777 | 20° C | 28% | 1099 hPa | 0 mm | - | 16 W/m² | - |
| 1777859474 | 20.56° C | 27% | 1099.1 hPa | 0 mm | - | 20 W/m² | - |
| 1777859169 | 21.11° C | 25% | 1099.1 hPa | 0 mm | - | 22 W/m² | - |
| 1777858867 | 21.11° C | 25% | 1099.2 hPa | 0 mm | - | 26 W/m² | - |
* Rain latest hour (hover to see other rain measurements)
** Current wind speed in m/s (hover to see current wind gust speed)